| time (UTC) | temp C | wind direction | speed KPH | gust KPH | rain 1hr cm | rain 24hr cm | rain mn cm | humidity % | barometer mb |
| 20260505214726 | 11 | 311 | 9.7 | 16.1 | 0.00 | 0.00 | 0.00 | 73 | 1013.2 |
| 20260505214550 | 11 | 339 | 8.0 | 16.1 | 0.00 | 0.00 | 0.00 | 73 | 1013.2 |
| 20260505214217 | 11 | 309 | 9.7 | 16.1 | 0.00 | 0.00 | 0.00 | 73 | 1013.3 |
| 20260505213932 | 11 | 311 | 11.3 | 16.1 | 0.00 | 0.00 | 0.00 | 73 | 1013.3 |
| 20260505213212 | 11 | 305 | 11.3 | 16.1 | 0.00 | 0.00 | 0.00 | 73 | 1013.3 |
| 20260505213048 | 11 | 327 | 11.3 | 16.1 | 0.00 | 0.00 | 0.00 | 73 | 1013.2 |
| 20260505212711 | 11 | 301 | 11.3 | 16.1 | 0.00 | 0.00 | 0.00 | 72 | 1013.3 |
| 20260505212210 | 11 | 318 | 9.7 | 17.7 | 0.00 | 0.00 | 0.00 | 72 | 1013.2 |
| 20260505211710 | 11 | 305 | 9.7 | 17.7 | 0.00 | 0.00 | 0.00 | 72 | 1013.3 |
| 20260505211510 | 11 | 318 | 9.7 | 17.7 | 0.00 | 0.00 | 0.00 | 72 | 1013.2 |
| 20260505211207 | 11 | 304 | 9.7 | 17.7 | 0.00 | 0.00 | 0.00 | 72 | 1013.3 |
| 20260505210911 | 11 | 294 | 11.3 | 19.3 | 0.00 | 0.00 | 0.00 | 72 | 1013.3 |
| 20260505210342 | 11 | 326 | 11.3 | 19.3 | 0.00 | 0.00 | 0.00 | 71 | 1013.2 |
| 20260505210050 | 11 | 297 | 11.3 | 16.1 | 0.00 | 0.00 | 0.00 | 71 | 1013.1 |
| 20260505205558 | 11 | 313 | 12.9 | 19.3 | 0.00 | 0.00 | 0.00 | 71 | 1013.1 |
| 20260505205319 | 11 | 332 | 14.5 | 19.3 | 0.00 | 0.00 | 0.00 | 71 | 1013.2 |
| 20260505205038 | 11 | 308 | 12.9 | 19.3 | 0.00 | 0.00 | 0.00 | 71 | 1013.1 |
| 20260505204527 | 11 | 307 | 12.9 | 19.3 | 0.00 | 0.00 | 0.00 | 71 | 1013.1 |
| 20260505204314 | 11 | 297 | 12.9 | 19.3 | 0.00 | 0.00 | 0.00 | 71 | 1013.1 |
| 20260505203551 | 11 | 297 | 12.9 | 19.3 | 0.00 | 0.00 | 0.00 | 71 | 1013.1 |
| 20260505203042 | 11 | 311 | 9.7 | 16.1 | 0.00 | 0.00 | 0.00 | 71 | 1013.1 |
| 20260505203022 | 11 | 287 | 11.3 | 17.7 | 0.00 | 0.00 | 0.00 | 71 | 1013.2 |
| 20260505202521 | 12 | 304 | 11.3 | 16.1 | 0.00 | 0.00 | 0.00 | 71 | 1013.2 |
| 20260505201955 | 12 | 293 | 11.3 | 19.3 | 0.00 | 0.00 | 0.00 | 70 | 1013.1 |
| 20260505201949 | 12 | 295 | 12.9 | 19.3 | 0.00 | 0.00 | 0.00 | 71 | 1013.0 |
| 20260505201549 | 11 | 287 | 11.3 | 19.3 | 0.00 | 0.00 | 0.00 | 70 | 1013.0 |
| 20260505200944 | 12 | 314 | 11.3 | 19.3 | 0.00 | 0.00 | 0.00 | 71 | 1012.9 |
| 20260505200419 | 12 | 306 | 11.3 | 16.1 | 0.00 | 0.00 | 0.00 | 71 | 1012.9 |
| 20260505200049 | 11 | 300 | 9.7 | 16.1 | 0.00 | 0.00 | 0.00 | 71 | 1012.8 |
| 20260505195904 | 12 | 296 | 11.3 | 16.1 | 0.00 | 0.00 | 0.00 | 71 | 1012.9 |
| 20260505195336 | 12 | 297 | 9.7 | 14.5 | 0.00 | 0.00 | 0.00 | 71 | 1012.8 |
| 20260505194837 | 12 | 299 | 9.7 | 12.9 | 0.00 | 0.00 | 0.00 | 71 | 1012.8 |
| 20260505194548 | 12 | 301 | 8.0 | 12.9 | 0.00 | 0.00 | 0.00 | 71 | 1012.7 |
| 20260505194310 | 12 | 311 | 9.7 | 11.3 | 0.00 | 0.00 | 0.00 | 70 | 1012.7 |
| 20260505193802 | 12 | 301 | 8.0 | 12.9 | 0.00 | 0.00 | 0.00 | 70 | 1012.7 |
| 20260505193300 | 12 | 306 | 8.0 | 16.1 | 0.00 | 0.00 | 0.00 | 70 | 1012.6 |
| 20260505193046 | 12 | 304 | 8.0 | 16.1 | 0.00 | 0.00 | 0.00 | 70 | 1012.6 |
| 20260505192759 | 12 | 298 | 9.7 | 16.1 | 0.00 | 0.00 | 0.00 | 70 | 1012.6 |
| 20260505192516 | 12 | 289 | 9.7 | 17.7 | 0.00 | 0.00 | 0.00 | 70 | 1012.6 |
| 20260505191723 | 12 | 310 | 9.7 | 17.7 | 0.00 | 0.00 | 0.00 | 70 | 1012.6 |
| 20260505191608 | 12 | 314 | 8.0 | 16.1 | 0.00 | 0.00 | 0.00 | 70 | 1012.5 |
| 20260505191157 | 12 | 305 | 9.7 | 17.7 | 0.00 | 0.00 | 0.00 | 70 | 1012.6 |
| 20260505190850 | 12 | 294 | 8.0 | 17.7 | 0.00 | 0.00 | 0.00 | 70 | 1012.6 |
| 20260505190344 | 12 | 289 | 8.0 | 12.9 | 0.00 | 0.00 | 0.00 | 69 | 1012.6 |
| 20260505190036 | 12 | 316 | 6.4 | 12.9 | 0.00 | 0.00 | 0.00 | 69 | 1012.5 |
| 20260505185617 | 12 | 294 | 9.7 | 16.1 | 0.00 | 0.00 | 0.00 | 68 | 1012.5 |
| 20260505185114 | 13 | 294 | 9.7 | 16.1 | 0.00 | 0.00 | 0.00 | 68 | 1012.5 |
| 20260505184613 | 13 | 289 | 9.7 | 19.3 | 0.00 | 0.00 | 0.00 | 67 | 1012.5 |
| 20260505184546 | 12 | 305 | 11.3 | 16.1 | 0.00 | 0.00 | 0.00 | 67 | 1012.5 |
| 20260505184047 | 13 | 306 | 9.7 | 16.1 | 0.00 | 0.00 | 0.00 | 67 | 1012.5 |
| 20260505183518 | 13 | 303 | 9.7 | 19.3 | 0.00 | 0.00 | 0.00 | 66 | 1012.5 |
| 20260505183131 | 13 | 326 | 11.3 | 19.3 | 0.00 | 0.00 | 0.00 | 65 | 1012.4 |
| 20260505183019 | 13 | 297 | 9.7 | 16.1 | 0.00 | 0.00 | 0.00 | 65 | 1012.4 |
| 20260505182508 | 13 | 313 | 11.3 | 19.3 | 0.00 | 0.00 | 0.00 | 65 | 1012.4 |
| 20260505182011 | 13 | 297 | 9.7 | 19.3 | 0.00 | 0.00 | 0.00 | 65 | 1012.4 |
| 20260505181503 | 13 | 301 | 9.7 | 19.3 | 0.00 | 0.00 | 0.00 | 65 | 1012.4 |
| 20260505181442 | 13 | 329 | 11.3 | 19.3 | 0.00 | 0.00 | 0.00 | 65 | 1012.4 |
| 20260505180941 | 13 | 289 | 12.9 | 19.3 | 0.00 | 0.00 | 0.00 | 65 | 1012.4 |
| 20260505180415 | 13 | 314 | 11.3 | 24.1 | 0.00 | 0.00 | 0.00 | 65 | 1012.4 |
| 20260505180045 | 13 | 334 | 9.7 | 19.3 | 0.00 | 0.00 | 0.00 | 65 | 1012.4 |
| 20260505175854 | 13 | 321 | 12.9 | 24.1 | 0.00 | 0.00 | 0.00 | 65 | 1012.4 |
| 20260505175338 | 14 | 346 | 12.9 | 24.1 | 0.00 | 0.00 | 0.00 | 65 | 1012.4 |
| 20260505175104 | 14 | 307 | 12.9 | 24.1 | 0.00 | 0.00 | 0.00 | 64 | 1012.4 |
| 20260505174551 | 13 | 305 | 14.5 | 24.1 | 0.00 | 0.00 | 0.00 | 64 | 1012.3 |
| 20260505174322 | 14 | 287 | 11.3 | 19.3 | 0.00 | 0.00 | 0.00 | 64 | 1012.3 |
| 20260505173821 | 14 | 294 | 11.3 | 19.3 | 0.00 | 0.00 | 0.00 | 64 | 1012.3 |
| 20260505173252 | 15 | 311 | 14.5 | 22.5 | 0.00 | 0.00 | 0.00 | 62 | 1012.4 |
| 20260505173040 | 14 | 299 | 12.9 | 22.5 | 0.00 | 0.00 | 0.00 | 63 | 1012.3 |
| 20260505172731 | 15 | 319 | 12.9 | 22.5 | 0.00 | 0.00 | 0.00 | 62 | 1012.4 |
| 20260505172450 | 15 | 311 | 9.7 | 19.3 | 0.00 | 0.00 | 0.00 | 64 | 1012.4 |
| 20260505171729 | 15 | 308 | 9.7 | 19.3 | 0.00 | 0.00 | 0.00 | 63 | 1012.5 |
| 20260505171525 | 15 | 298 | 8.0 | 19.3 | 0.00 | 0.00 | 0.00 | 64 | 1012.3 |
| 20260505171229 | 15 | 297 | 9.7 | 19.3 | 0.00 | 0.00 | 0.00 | 63 | 1012.4 |
| 20260505170727 | 15 | 294 | 9.7 | 14.5 | 0.00 | 0.00 | 0.00 | 63 | 1012.5 |
| 20260505170243 | 15 | 328 | 9.7 | 16.1 | 0.00 | 0.00 | 0.00 | 62 | 1012.4 |
| 20260505170052 | 15 | 289 | 8.0 | 14.5 | 0.00 | 0.00 | 0.00 | 61 | 1012.3 |
| 20260505165702 | 15 | 298 | 9.7 | 16.1 | 0.00 | 0.00 | 0.00 | 61 | 1012.4 |
| 20260505165201 | 15 | 303 | 8.0 | 16.1 | 0.00 | 0.00 | 0.00 | 62 | 1012.5 |
| 20260505164634 | 15 | 293 | 8.0 | 20.9 | 0.00 | 0.00 | 0.00 | 63 | 1012.4 |
| 20260505164605 | 15 | 293 | 8.0 | 16.1 | 0.00 | 0.00 | 0.00 | 62 | 1012.4 |
| 20260505164111 | 15 | 285 | 11.3 | 20.9 | 0.00 | 0.00 | 0.00 | 62 | 1012.5 |
| 20260505163550 | 15 | 305 | 11.3 | 22.5 | 0.00 | 0.00 | 0.00 | 60 | 1012.5 |
| 20260505163032 | 15 | 279 | 11.3 | 22.5 | 0.00 | 0.00 | 0.00 | 62 | 1012.5 |
| 20260505163021 | 15 | 282 | 8.0 | 20.9 | 0.00 | 0.00 | 0.00 | 63 | 1012.4 |
| 20260505162516 | 15 | 297 | 12.9 | 22.5 | 0.00 | 0.00 | 0.00 | 62 | 1012.4 |
| 20260505161948 | 15 | 294 | 12.9 | 22.5 | 0.00 | 0.00 | 0.00 | 62 | 1012.4 |
| 20260505161511 | 15 | 293 | 11.3 | 19.3 | 0.00 | 0.00 | 0.00 | 61 | 1012.4 |
| 20260505161428 | 15 | 313 | 11.3 | 19.3 | 0.00 | 0.00 | 0.00 | 61 | 1012.5 |
| 20260505160905 | 15 | 310 | 9.7 | 19.3 | 0.00 | 0.00 | 0.00 | 61 | 1012.5 |
| 20260505160400 | 15 | 333 | 11.3 | 19.3 | 0.00 | 0.00 | 0.00 | 60 | 1012.5 |
| 20260505153006 | 16 | 297 | 11.3 | 24.1 | 0.00 | 0.00 | 0.00 | 58 | 1012.4 |
| 20260505152736 | 16 | 17 | 11.3 | 24.1 | 0.00 | 0.00 | 0.00 | 60 | 1012.5 |
| 20260505152235 | 16 | 325 | 11.3 | 22.5 | 0.00 | 0.00 | 0.00 | 61 | 1012.5 |
| 20260505152000 | 16 | 309 | 11.3 | 22.5 | 0.00 | 0.00 | 0.00 | 60 | 1012.4 |
| 20260505151603 | 16 | 303 | 11.3 | 22.5 | 0.00 | 0.00 | 0.00 | 60 | 1012.4 |
| 20260505151204 | 16 | 289 | 12.9 | 20.9 | 0.00 | 0.00 | 0.00 | 60 | 1012.5 |
| 20260505150631 | 16 | 313 | 12.9 | 20.9 | 0.00 | 0.00 | 0.00 | 59 | 1012.5 |
| 20260505150125 | 16 | 292 | 11.3 | 20.9 | 0.00 | 0.00 | 0.00 | 59 | 1012.6 |
| 20260505140409 | 16 | 304 | 12.9 | 20.9 | 0.00 | 0.00 | 0.00 | 60 | 1012.9 |
| 20260505130148 | 17 | 334 | 12.9 | 22.5 | 0.00 | 0.00 | 0.00 | 58 | 1013.1 |
| 20260505124613 | 17 | 316 | 11.3 | 20.9 | 0.00 | 0.00 | 0.00 | 58 | 1013.1 |
| 20260505124558 | 17 | 297 | 11.3 | 19.3 | 0.00 | 0.00 | 0.00 | 58 | 1013.0 |
| 20260505124046 | 18 | 306 | 11.3 | 20.9 | 0.00 | 0.00 | 0.00 | 55 | 1013.1 |
| 20260505123517 | 18 | 14 | 12.9 | 20.9 | 0.00 | 0.00 | 0.00 | 57 | 1013.0 |
| 20260505123056 | 18 | 297 | 12.9 | 22.5 | 0.00 | 0.00 | 0.00 | 58 | 1013.0 |
| 20260505123016 | 18 | 292 | 12.9 | 22.5 | 0.00 | 0.00 | 0.00 | 58 | 1013.1 |
| 20260505122447 | 18 | 327 | 11.3 | 22.5 | 0.00 | 0.00 | 0.00 | 58 | 1013.2 |
| 20260505121946 | 17 | 337 | 9.7 | 27.4 | 0.00 | 0.00 | 0.00 | 61 | 1013.1 |
| 20260505121547 | 17 | 314 | 4.8 | 19.3 | 0.00 | 0.00 | 0.00 | 61 | 1013.0 |
| 20260505121426 | 17 | 26 | 12.9 | 27.4 | 0.00 | 0.00 | 0.00 | 60 | 1013.2 |
| 20260505120927 | 17 | 280 | 14.5 | 27.4 | 0.00 | 0.00 | 0.00 | 61 | 1013.2 |
| 20260505120419 | 17 | 295 | 12.9 | 27.4 | 0.00 | 0.00 | 0.00 | 61 | 1013.1 |
| 20260505120128 | 17 | 302 | 11.3 | 25.7 | 0.00 | 0.00 | 0.00 | 60 | 1013.0 |
| 20260505115918 | 17 | 299 | 11.3 | 25.7 | 0.00 | 0.00 | 0.00 | 61 | 1013.1 |
| 20260505115349 | 17 | 284 | 11.3 | 27.4 | 0.00 | 0.00 | 0.00 | 62 | 1013.1 |
| 20260505114848 | 17 | 3 | 16.1 | 27.4 | 0.00 | 0.00 | 0.00 | 62 | 1013.2 |
| 20260505114502 | 16 | 333 | 14.5 | 27.4 | 0.00 | 0.00 | 0.00 | 62 | 1013.0 |
| 20260505114341 | 16 | 326 | 17.7 | 27.4 | 0.00 | 0.00 | 0.00 | 62 | 1013.0 |
| 20260505113840 | 17 | 296 | 16.1 | 27.4 | 0.00 | 0.00 | 0.00 | 60 | 1013.2 |
| 20260505113311 | 17 | 313 | 14.5 | 24.1 | 0.00 | 0.00 | 0.00 | 61 | 1013.2 |
| 20260505113049 | 17 | 298 | 14.5 | 24.1 | 0.00 | 0.00 | 0.00 | 62 | 1013.0 |
| 20260505112748 | 17 | 297 | 16.1 | 24.1 | 0.00 | 0.00 | 0.00 | 62 | 1013.2 |
| 20260505112244 | 17 | 301 | 12.9 | 24.1 | 0.00 | 0.00 | 0.00 | 64 | 1013.2 |
| 20260505111739 | 17 | 315 | 11.3 | 24.1 | 0.00 | 0.00 | 0.00 | 62 | 1013.3 |
| 20260505111502 | 16 | 330 | 9.7 | 24.1 | 0.00 | 0.00 | 0.00 | 63 | 1013.2 |
| 20260505111459 | 16 | 306 | 9.7 | 19.3 | 0.00 | 0.00 | 0.00 | 65 | 1013.3 |
| 20260505110735 | 16 | 346 | 9.7 | 24.1 | 0.00 | 0.00 | 0.00 | 64 | 1013.3 |
| 20260505110217 | 16 | 305 | 11.3 | 24.1 | 0.00 | 0.00 | 0.00 | 64 | 1013.3 |
| 20260505102041 | 16 | 10 | 8.0 | 17.7 | 0.00 | 0.00 | 0.00 | 70 | 1013.6 |
| 20260505101538 | 15 | 308 | 8.0 | 17.7 | 0.00 | 0.00 | 0.00 | 74 | 1013.6 |
| 20260505101526 | 15 | 294 | 8.0 | 17.7 | 0.00 | 0.00 | 0.00 | 74 | 1013.5 |
| 20260505101020 | 15 | 343 | 9.7 | 17.7 | 0.00 | 0.00 | 0.00 | 75 | 1013.6 |
| 20260505100454 | 15 | 292 | 8.0 | 16.1 | 0.00 | 0.00 | 0.00 | 74 | 1013.7 |
| 20260505100020 | 14 | 10 | 8.0 | 16.1 | 0.00 | 0.00 | 0.00 | 77 | 1013.7 |
| 20260505095931 | 14 | 9 | 6.4 | 16.1 | 0.00 | 0.00 | 0.00 | 77 | 1013.8 |
| 20260505095431 | 13 | 346 | 8.0 | 14.5 | 0.00 | 0.00 | 0.00 | 76 | 1014.0 |
| 20260505094929 | 13 | 346 | 8.0 | 17.7 | 0.00 | 0.00 | 0.00 | 75 | 1014.0 |
| 20260505094515 | 13 | 15 | 8.0 | 17.7 | 0.00 | 0.00 | 0.00 | 76 | 1013.7 |
| 20260505094426 | 13 | 17 | 6.4 | 14.5 | 0.00 | 0.00 | 0.00 | 76 | 1013.8 |
| 20260505094048 | 13 | 341 | 6.4 | 12.9 | 0.00 | 0.00 | 0.00 | 78 | 1014.0 |
| 20260505094037 | 13 | 26 | 6.4 | 12.9 | 0.00 | 0.00 | 0.00 | 78 | 1014.0 |
| 20260505093030 | 12 | 42 | 8.0 | 12.9 | 0.00 | 0.00 | 0.00 | 77 | 1013.8 |
| 20260505092835 | 13 | 23 | 6.4 | 12.9 | 0.00 | 0.00 | 0.00 | 77 | 1014.0 |
| 20260505092314 | 13 | 4 | 8.0 | 19.3 | 0.00 | 0.00 | 0.00 | 78 | 1014.0 |
| 20260505091813 | 12 | 346 | 9.7 | 19.3 | 0.00 | 0.00 | 0.00 | 79 | 1014.0 |
| 20260505091529 | 12 | 342 | 8.0 | 19.3 | 0.00 | 0.00 | 0.00 | 79 | 1013.8 |
| 20260505091248 | 12 | 5 | 8.0 | 19.3 | 0.00 | 0.00 | 0.00 | 79 | 1013.8 |
| 20260505091229 | 12 | 337 | 6.4 | 16.1 | 0.00 | 0.00 | 0.00 | 80 | 1013.8 |
| 20260505090239 | 12 | 10 | 6.4 | 16.1 | 0.00 | 0.00 | 0.00 | 80 | 1013.8 |
| 20260505090039 | 12 | 10 | 3.2 | 16.1 | 0.00 | 0.00 | 0.00 | 80 | 1013.7 |
| 20260505085739 | 12 | 292 | 8.0 | 17.7 | 0.00 | 0.00 | 0.00 | 80 | 1013.8 |
| 20260505085238 | 12 | 305 | 9.7 | 17.7 | 0.00 | 0.00 | 0.00 | 79 | 1014.0 |
| 20260505084737 | 12 | 327 | 9.7 | 17.7 | 0.00 | 0.00 | 0.00 | 79 | 1013.8 |
| 20260505084511 | 12 | 13 | 8.0 | 17.7 | 0.00 | 0.00 | 0.00 | 79 | 1013.7 |
| 20260505084236 | 12 | 326 | 8.0 | 17.7 | 0.00 | 0.00 | 0.00 | 79 | 1013.7 |
| 20260505083730 | 12 | 5 | 8.0 | 17.7 | 0.00 | 0.00 | 0.00 | 79 | 1013.8 |
| 20260505083435 | 13 | 296 | 9.7 | 17.7 | 0.00 | 0.00 | 0.00 | 79 | 1013.8 |
| 20260505083048 | 12 | 316 | 11.3 | 17.7 | 0.00 | 0.00 | 0.00 | 78 | 1013.7 |
| 20260505082646 | 13 | 338 | 8.0 | 14.5 | 0.00 | 0.00 | 0.00 | 79 | 1013.8 |
| 20260505082121 | 13 | 26 | 9.7 | 25.7 | 0.00 | 0.00 | 0.00 | 79 | 1013.8 |
| 20260505081622 | 13 | 337 | 11.3 | 25.7 | 0.00 | 0.00 | 0.00 | 78 | 1013.8 |
| 20260505081554 | 13 | 338 | 8.0 | 25.7 | 0.00 | 0.00 | 0.00 | 78 | 1013.7 |
| 20260505081107 | 13 | 325 | 11.3 | 25.7 | 0.00 | 0.00 | 0.00 | 78 | 1013.8 |
| 20260505080605 | 13 | 308 | 9.7 | 25.7 | 0.00 | 0.00 | 0.00 | 79 | 1013.8 |
| 20260505080059 | 13 | 10 | 9.7 | 17.7 | 0.00 | 0.00 | 0.00 | 79 | 1013.8 |
| 20260505080038 | 13 | 3 | 8.0 | 17.7 | 0.00 | 0.00 | 0.00 | 79 | 1013.7 |
| 20260505075802 | 13 | 10 | 9.7 | 17.7 | 0.00 | 0.00 | 0.00 | 79 | 1013.8 |
| 20260505075016 | 13 | 315 | 8.0 | 16.1 | 0.00 | 0.00 | 0.00 | 81 | 1013.8 |
| 20260505074526 | 12 | 29 | 6.4 | 16.1 | 0.00 | 0.00 | 0.00 | 81 | 1013.7 |
| 20260505074453 | 13 | 300 | 9.7 | 25.7 | 0.00 | 0.00 | 0.00 | 81 | 1013.8 |
| 20260505073955 | 13 | 293 | 11.3 | 25.7 | 0.00 | 0.00 | 0.00 | 82 | 1013.8 |
| 20260505073438 | 12 | 13 | 11.3 | 25.7 | 0.00 | 0.00 | 0.00 | 82 | 1013.8 |
| 20260505073110 | 12 | 337 | 11.3 | 25.7 | 0.00 | 0.00 | 0.00 | 83 | 1013.7 |
| 20260505072939 | 12 | 302 | 11.3 | 25.7 | 0.00 | 0.00 | 0.00 | 83 | 1013.8 |
| 20260505072704 | 12 | 336 | 9.7 | 19.3 | 0.00 | 0.00 | 0.00 | 84 | 1013.7 |
| 20260505071937 | 12 | 301 | 8.0 | 16.1 | 0.00 | 0.00 | 0.00 | 85 | 1013.7 |
| 20260505071515 | 12 | 25 | 6.4 | 16.1 | 0.00 | 0.00 | 0.00 | 86 | 1013.8 |
| 20260505071437 | 12 | 346 | 8.0 | 16.1 | 0.00 | 0.00 | 0.00 | 86 | 1013.8 |
| 20260505070934 | 12 | 316 | 8.0 | 16.1 | 0.00 | 0.00 | 0.00 | 87 | 1013.8 |
| 20260505070441 | 11 | 294 | 8.0 | 16.1 | 0.00 | 0.00 | 0.00 | 87 | 1014.0 |
| 20260505070058 | 11 | 351 | 8.0 | 14.5 | 0.00 | 0.00 | 0.00 | 88 | 1013.9 |
| 20260505065928 | 11 | 255 | 8.0 | 14.5 | 0.00 | 0.00 | 0.00 | 88 | 1014.0 |
| 20260505065425 | 11 | 313 | 6.4 | 14.5 | 0.00 | 0.00 | 0.00 | 88 | 1014.0 |
| 20260505064921 | 11 | 338 | 6.4 | 14.5 | 0.00 | 0.00 | 0.00 | 88 | 1014.0 |
| 20260505064626 | 11 | 350 | 6.4 | 14.5 | 0.00 | 0.00 | 0.00 | 89 | 1014.0 |
| 20260505064538 | 11 | 360 | 6.4 | 11.3 | 0.00 | 0.00 | 0.00 | 89 | 1013.8 |
| 20260505063858 | 11 | 350 | 6.4 | 14.5 | 0.00 | 0.00 | 0.00 | 89 | 1013.8 |
| 20260505063355 | 11 | 289 | 6.4 | 14.5 | 0.00 | 0.00 | 0.00 | 90 | 1014.0 |
| 20260505063022 | 10 | 318 | 6.4 | 14.5 | 0.00 | 0.00 | 0.00 | 90 | 1013.7 |
| 20260505062831 | 10 | 302 | 4.8 | 11.3 | 0.00 | 0.00 | 0.00 | 90 | 1013.8 |
| 20260505062312 | 10 | 300 | 4.8 | 11.3 | 0.00 | 0.00 | 0.00 | 90 | 1013.8 |
| 20260505061812 | 10 | 300 | 6.4 | 11.3 | 0.00 | 0.00 | 0.00 | 90 | 1013.7 |
| 20260505061609 | 10 | 299 | 4.8 | 11.3 | 0.00 | 0.00 | 0.00 | 90 | 1013.7 |
| 20260505061314 | 10 | 299 | 8.0 | 16.1 | 0.00 | 0.00 | 0.00 | 90 | 1013.8 |
| 20260505060746 | 10 | 316 | 8.0 | 16.1 | 0.00 | 0.00 | 0.00 | 90 | 1013.7 |
| 20260505060509 | 10 | 316 | 11.3 | 16.1 | 0.00 | 0.00 | 0.00 | 90 | 1013.7 |
| 20260505060006 | 10 | 323 | 9.7 | 16.1 | 0.00 | 0.00 | 0.00 | 90 | 1013.6 |
| 20260505055719 | 10 | 308 | 11.3 | 16.1 | 0.00 | 0.00 | 0.00 | 90 | 1013.6 |
| 20260505055216 | 10 | 319 | 9.7 | 14.5 | 0.00 | 0.00 | 0.00 | 91 | 1013.7 |
| 20260505054713 | 10 | 301 | 9.7 | 12.9 | 0.00 | 0.00 | 0.00 | 90 | 1013.7 |
| 20260505054611 | 10 | 290 | 8.0 | 12.9 | 0.00 | 0.00 | 0.00 | 91 | 1013.7 |
| 20260505054210 | 10 | 286 | 9.7 | 12.9 | 0.00 | 0.00 | 0.00 | 91 | 1013.8 |
| 20260505053709 | 10 | 306 | 9.7 | 12.9 | 0.00 | 0.00 | 0.00 | 91 | 1013.7 |
| 20260505053143 | 10 | 305 | 9.7 | 16.1 | 0.00 | 0.00 | 0.00 | 91 | 1013.7 |
| 20260505053009 | 10 | 303 | 9.7 | 12.9 | 0.00 | 0.00 | 0.00 | 91 | 1013.6 |
| 20260505052622 | 10 | 306 | 9.7 | 16.1 | 0.00 | 0.00 | 0.00 | 91 | 1013.7 |
| 20260505052123 | 10 | 292 | 11.3 | 16.1 | 0.00 | 0.00 | 0.00 | 91 | 1013.7 |
| 20260505051619 | 10 | 302 | 11.3 | 16.1 | 0.00 | 0.00 | 0.00 | 91 | 1013.6 |
| 20260505051505 | 10 | 304 | 11.3 | 16.1 | 0.00 | 0.00 | 0.00 | 91 | 1013.5 |
| 20260505051110 | 10 | 307 | 9.7 | 17.7 | 0.00 | 0.00 | 0.00 | 91 | 1013.5 |
| 20260505050608 | 10 | 301 | 11.3 | 17.7 | 0.00 | 0.00 | 0.00 | 91 | 1013.5 |
| 20260505050110 | 10 | 306 | 11.3 | 17.7 | 0.00 | 0.00 | 0.00 | 91 | 1013.4 |
| 20260505050104 | 10 | 303 | 11.3 | 17.7 | 0.00 | 0.00 | 0.00 | 91 | 1013.5 |
| 20260505041554 | 10 | 305 | 0.0 | 0.0 | 0.00 | 0.00 | 0.00 | 92 | 1013.4 |
| 20260505041502 | 10 | 305 | 0.0 | 11.3 | 0.00 | 0.00 | 0.00 | 92 | 1013.5 |
| 20260505040946 | 10 | 304 | 3.2 | 11.3 | 0.00 | 0.00 | 0.00 | 92 | 1013.5 |
| 20260505040712 | 10 | 303 | 6.4 | 11.3 | 0.00 | 0.00 | 0.00 | 92 | 1013.5 |
| 20260505040030 | 10 | 304 | 6.4 | 11.3 | 0.00 | 0.00 | 0.00 | 91 | 1013.5 |
| 20260505035949 | 10 | 304 | 6.4 | 9.7 | 0.00 | 0.00 | 0.00 | 91 | 1013.6 |
| 20260505035428 | 10 | 303 | 4.8 | 8.0 | 0.00 | 0.00 | 0.00 | 91 | 1013.5 |
| 20260505034928 | 10 | 303 | 4.8 | 11.3 | 0.00 | 0.00 | 0.00 | 91 | 1013.5 |
| 20260505034544 | 10 | 303 | 3.2 | 8.0 | 0.00 | 0.00 | 0.00 | 91 | 1013.5 |
| 20260505034426 | 10 | 303 | 6.4 | 11.3 | 0.00 | 0.00 | 0.00 | 91 | 1013.5 |
| 20260505033926 | 10 | 303 | 8.0 | 11.3 | 0.00 | 0.00 | 0.00 | 91 | 1013.5 |
| 20260505033424 | 10 | 303 | 9.7 | 11.3 | 0.00 | 0.00 | 0.00 | 91 | 1013.5 |
| 20260505033008 | 10 | 303 | 8.0 | 11.3 | 0.00 | 0.00 | 0.00 | 91 | 1013.4 |
| 20260505032939 | 10 | 302 | 9.7 | 14.5 | 0.00 | 0.00 | 0.00 | 91 | 1013.5 |
| 20260505032401 | 10 | 301 | 9.7 | 14.5 | 0.00 | 0.00 | 0.00 | 91 | 1013.5 |
| 20260505032053 | 10 | 307 | 9.7 | 14.5 | 0.00 | 0.00 | 0.00 | 91 | 1013.5 |
| 20260505031604 | 10 | 306 | 8.0 | 14.5 | 0.00 | 0.00 | 0.00 | 91 | 1013.5 |
| 20260505031546 | 10 | 305 | 11.3 | 14.5 | 0.00 | 0.00 | 0.00 | 91 | 1013.5 |
| 20260505030824 | 10 | 302 | 11.3 | 14.5 | 0.00 | 0.00 | 0.00 | 91 | 1013.4 |
| 20260505030256 | 10 | 297 | 9.7 | 14.5 | 0.00 | 0.00 | 0.00 | 90 | 1013.5 |
| 20260505030056 | 10 | 304 | 9.7 | 14.5 | 0.00 | 0.00 | 0.00 | 90 | 1013.4 |
| 20260505025756 | 10 | 303 | 9.7 | 14.5 | 0.00 | 0.00 | 0.00 | 90 | 1013.5 |
| 20260505025226 | 10 | 313 | 9.7 | 12.9 | 0.00 | 0.00 | 0.00 | 90 | 1013.5 |
| 20260505024715 | 10 | 306 | 9.7 | 12.9 | 0.00 | 0.00 | 0.00 | 90 | 1013.5 |
| 20260505024538 | 10 | 298 | 9.7 | 12.9 | 0.00 | 0.00 | 0.00 | 90 | 1013.4 |
| 20260505024216 | 10 | 297 | 9.7 | 14.5 | 0.00 | 0.00 | 0.00 | 90 | 1013.5 |
| 20260505023718 | 10 | 294 | 9.7 | 14.5 | 0.00 | 0.00 | 0.00 | 90 | 1013.5 |
| 20260505023150 | 10 | 306 | 9.7 | 14.5 | 0.00 | 0.00 | 0.00 | 89 | 1013.5 |
| 20260505023132 | 10 | 308 | 9.7 | 14.5 | 0.00 | 0.00 | 0.00 | 90 | 1013.6 |
| 20260505023121 | 10 | 289 | 8.0 | 14.5 | 0.00 | 0.00 | 0.00 | 89 | 1013.4 |
| 20260505022145 | 11 | 305 | 8.0 | 12.9 | 0.00 | 0.00 | 0.00 | 89 | 1013.6 |
| 20260505021619 | 11 | 303 | 8.0 | 12.9 | 0.00 | 0.00 | 0.00 | 89 | 1013.6 |
| 20260505021549 | 10 | 303 | 6.4 | 12.9 | 0.00 | 0.00 | 0.00 | 89 | 1013.5 |
| 20260505021048 | 11 | 303 | 8.0 | 12.9 | 0.00 | 0.00 | 0.00 | 89 | 1013.6 |
| 20260505020547 | 11 | 301 | 8.0 | 12.9 | 0.00 | 0.00 | 0.00 | 90 | 1013.7 |
| 20260505020315 | 11 | 294 | 4.8 | 9.7 | 0.00 | 0.00 | 0.00 | 89 | 1013.7 |
| 20260505020027 | 11 | 294 | 6.4 | 9.7 | 0.00 | 0.00 | 0.00 | 89 | 1013.6 |
| 20260505015517 | 11 | 304 | 6.4 | 11.3 | 0.00 | 0.00 | 0.00 | 89 | 1013.8 |
| 20260505014951 | 11 | 304 | 6.4 | 11.3 | 0.00 | 0.00 | 0.00 | 89 | 1013.7 |
| 20260505014504 | 11 | 304 | 4.8 | 11.3 | 0.00 | 0.00 | 0.00 | 89 | 1013.7 |
| 20260505014423 | 11 | 304 | 6.4 | 11.3 | 0.00 | 0.00 | 0.00 | 89 | 1013.8 |
| 20260505013855 | 11 | 303 | 6.4 | 11.3 | 0.00 | 0.00 | 0.00 | 89 | 1013.8 |
| 20260505013353 | 11 | 305 | 6.4 | 8.0 | 0.00 | 0.00 | 0.00 | 89 | 1014.0 |
| 20260505013113 | 11 | 310 | 4.8 | 8.0 | 0.00 | 0.00 | 0.00 | 89 | 1013.9 |
| 20260505012828 | 11 | 310 | 4.8 | 8.0 | 0.00 | 0.00 | 0.00 | 89 | 1014.0 |
| 20260505012328 | 11 | 310 | 4.8 | 9.7 | 0.00 | 0.00 | 0.00 | 89 | 1014.0 |
| 20260505011802 | 11 | 310 | 3.2 | 9.7 | 0.00 | 0.00 | 0.00 | 89 | 1014.1 |
| 20260505011604 | 11 | 310 | 3.2 | 9.7 | 0.00 | 0.00 | 0.00 | 89 | 1013.9 |
| 20260505011305 | 11 | 310 | 4.8 | 11.3 | 0.00 | 0.00 | 0.00 | 89 | 1014.1 |
| 20260505011234 | 11 | 310 | 4.8 | 11.3 | 0.00 | 0.00 | 0.00 | 89 | 1014.1 |
| 20260505010520 | 11 | 308 | 6.4 | 14.5 | 0.00 | 0.00 | 0.00 | 89 | 1014.1 |
| 20260505010010 | 11 | 308 | 4.8 | 11.3 | 0.00 | 0.00 | 0.00 | 89 | 1014.0 |
| 20260505005746 | 11 | 307 | 6.4 | 14.5 | 0.00 | 0.00 | 0.00 | 89 | 1014.1 |
| 20260505005247 | 11 | 259 | 8.0 | 14.5 | 0.00 | 0.00 | 0.00 | 89 | 1014.2 |
| 20260505004721 | 11 | 308 | 8.0 | 14.5 | 0.00 | 0.00 | 0.00 | 89 | 1014.2 |
| 20260505004554 | 11 | 308 | 9.7 | 14.5 | 0.00 | 0.00 | 0.00 | 89 | 1014.1 |
| 20260505004207 | 11 | 310 | 6.4 | 14.5 | 0.00 | 0.00 | 0.00 | 89 | 1014.3 |
| 20260505003700 | 11 | 310 | 8.0 | 14.5 | 0.00 | 0.00 | 0.00 | 89 | 1014.3 |
| 20260505003201 | 11 | 304 | 9.7 | 17.7 | 0.00 | 0.00 | 0.00 | 90 | 1014.2 |
| 20260505003039 | 11 | 307 | 6.4 | 17.7 | 0.00 | 0.00 | 0.00 | 90 | 1014.1 |
| 20260505002927 | 11 | 293 | 9.7 | 17.7 | 0.00 | 0.00 | 0.00 | 90 | 1014.1 |
| 20260505002201 | 11 | 304 | 9.7 | 17.7 | 0.00 | 0.00 | 0.00 | 90 | 1014.2 |
| 20260505001637 | 11 | 303 | 9.7 | 17.7 | 0.00 | 0.00 | 0.00 | 90 | 1014.3 |
| 20260505001517 | 11 | 297 | 9.7 | 17.7 | 0.00 | 0.00 | 0.00 | 90 | 1014.2 |
| 20260505001116 | 11 | 301 | 9.7 | 17.7 | 0.00 | 0.00 | 0.00 | 90 | 1014.4 |
| 20260505000612 | 11 | 306 | 11.3 | 17.7 | 0.00 | 0.00 | 0.00 | 91 | 1014.3 |
| 20260505000111 | 11 | 304 | 11.3 | 14.5 | 0.00 | 0.00 | 0.00 | 91 | 1014.3 |
| 20260505000034 | 11 | 309 | 11.3 | 14.5 | 0.00 | 0.00 | 0.00 | 91 | 1014.2 |
| 20260504235831 | 11 | 301 | 8.0 | 14.5 | 0.00 | 0.00 | 0.00 | 91 | 1014.4 |
| 20260504235109 | 11 | 285 | 6.4 | 11.3 | 0.00 | 0.00 | 0.00 | 91 | 1014.5 |
| 20260504234608 | 11 | 299 | 6.4 | 9.7 | 0.00 | 0.00 | 0.00 | 91 | 1014.5 |
| 20260504234551 | 11 | 299 | 4.8 | 11.3 | 0.00 | 0.00 | 0.00 | 91 | 1014.4 |
| 20260504234106 | 11 | 299 | 6.4 | 11.3 | 0.00 | 0.00 | 0.00 | 91 | 1014.5 |
| 20260504233556 | 11 | 292 | 4.8 | 9.7 | 0.00 | 0.00 | 0.00 | 91 | 1014.6 |
| 20260504233052 | 11 | 291 | 1.6 | 6.4 | 0.00 | 0.00 | 0.00 | 91 | 1014.5 |
| 20260504233037 | 11 | 291 | 3.2 | 6.4 | 0.00 | 0.00 | 0.00 | 91 | 1014.3 |
| 20260504232539 | 11 | 291 | 1.6 | 6.4 | 0.00 | 0.00 | 0.00 | 91 | 1014.5 |
| 20260504232011 | 11 | 291 | 0.0 | 6.4 | 0.00 | 0.00 | 0.00 | 91 | 1014.5 |
| 20260504231541 | 11 | 291 | 0.0 | 6.4 | 0.00 | 0.00 | 0.00 | 91 | 1014.4 |
| 20260504231509 | 11 | 291 | 1.6 | 11.3 | 0.00 | 0.00 | 0.00 | 91 | 1014.5 |
| 20260504230942 | 11 | 291 | 4.8 | 11.3 | 0.00 | 0.00 | 0.00 | 91 | 1014.6 |
| 20260504230416 | 11 | 290 | 4.8 | 11.3 | 0.00 | 0.00 | 0.00 | 91 | 1014.5 |
| 20260504230020 | 11 | 287 | 4.8 | 11.3 | 0.00 | 0.00 | 0.00 | 90 | 1014.2 |
| 20260504225906 | 11 | 287 | 3.2 | 11.3 | 0.00 | 0.00 | 0.00 | 90 | 1014.4 |
| 20260504225406 | 11 | 311 | 0.0 | 14.5 | 0.00 | 0.00 | 0.00 | 90 | 1014.4 |
| 20260504224840 | 11 | 311 | 3.2 | 14.5 | 0.00 | 0.00 | 0.00 | 90 | 1014.3 |
| 20260504224550 | 11 | 310 | 0.0 | 11.3 | 0.00 | 0.00 | 0.00 | 91 | 1014.2 |
| 20260504224311 | 11 | 310 | 6.4 | 14.5 | 0.00 | 0.00 | 0.00 | 91 | 1014.3 |
| 20260504223806 | 11 | 307 | 8.0 | 14.5 | 0.00 | 0.00 | 0.00 | 91 | 1014.3 |
| 20260504223243 | 11 | 309 | 8.0 | 14.5 | 0.00 | 0.00 | 0.00 | 91 | 1014.3 |
| 20260504223106 | 11 | 306 | 6.4 | 14.5 | 0.00 | 0.00 | 0.00 | 91 | 1014.2 |
| 20260504222712 | 11 | 285 | 9.7 | 14.5 | 0.00 | 0.00 | 0.00 | 91 | 1014.4 |
| 20260504222211 | 11 | 306 | 9.7 | 14.5 | 0.00 | 0.00 | 0.00 | 91 | 1014.4 |
| 20260504221642 | 11 | 306 | 8.0 | 14.5 | 0.00 | 0.00 | 0.00 | 90 | 1014.4 |
| 20260504221600 | 11 | 305 | 9.7 | 14.5 | 0.00 | 0.00 | 0.00 | 90 | 1014.3 |
| 20260504221141 | 11 | 303 | 4.8 | 11.3 | 0.00 | 0.00 | 0.00 | 90 | 1014.4 |
| 20260504220620 | 11 | 304 | 1.6 | 9.7 | 0.00 | 0.00 | 0.00 | 90 | 1014.4 |
| 20260504220059 | 11 | 303 | 1.6 | 8.0 | 0.00 | 0.00 | 0.00 | 90 | 1014.5 |
| 20260504220008 | 11 | 303 | 1.6 | 8.0 | 0.00 | 0.00 | 0.00 | 90 | 1014.4 |
| 20260504215600 | 11 | 302 | 0.0 | 1.6 | 0.00 | 0.00 | 0.00 | 89 | 1014.6 |